Regional Weather Roundup
Issued by NWS

Home | Current Version | Previous Version | Text Only | Print | Product List | Glossary On
Versions: 1 2 3 4 5 6 7 8 9 10 11 12 13 14 15 16 17 18 19 20 21 22 23 24 25 26 27 28 29 30 31 32 33 34 35 36 37 38 39 40 41 42 43 44 45 46 47 48 49 50
000
ASUS43 KBIS 241710
RWRND

NORTH DAKOTA REGIONAL WEATHER ROUNDUP
NATIONAL WEATHER SERVICE BISMARCK ND
1200 PM CDT FRI OCT 24 2014

NOTE: "FAIR" INDICATES FEW OR NO CLOUDS BELOW 12,000 FEET WITH NO
SIGNIFICANT WEATHER AND/OR OBSTRUCTIONS TO VISIBILITY.


NDZ001>003-009>011-017-241800-
NORTHWEST NORTH DAKOTA

CITY           SKY/WX    TMP DP  RH WIND       PRES   REMARKS
WILLISTON      PTSUNNY   61  35  37 W23G32    29.91S
MINOT          MOSUNNY   64  34  32 W25G32    29.84R
MINOT AFB      MOSUNNY   64  36  35 W29       29.81F
$$

NDZ018>021-031>035-040>046-241800-
SOUTHWEST NORTH DAKOTA

CITY           SKY/WX    TMP DP  RH WIND       PRES   REMARKS
BISMARCK       MOSUNNY   64  39  39 NW7       29.91R
DICKINSON      PTSUNNY   63  39  41 NW16      29.96R
GARRISON         N/A     63  37  38 W22G32    29.88S
HETTINGER ARPT SUNNY     66  37  34 NW20G25   29.99R
$$

NDZ004>008-012>016-024-026-027-054-241800-
NORTHEAST NORTH DAKOTA

CITY           SKY/WX    TMP DP  RH WIND       PRES   REMARKS
GRAND FORKS    MOSUNNY   68  41  37 W10       29.75F
GRND FRKS AFB  SUNNY     70  42  36 W13       29.75F
DEVILS LAKE    MOSUNNY   63  41  45 W17       29.79S
$$

NDZ022-023-025-028>030-036>039-047>053-241800-
SOUTHEAST NORTH DAKOTA

CITY           SKY/WX    TMP DP  RH WIND       PRES   REMARKS
FARGO          MOSUNNY   60  41  49 S9        29.81F
JAMESTOWN      MOSUNNY   66  40  38 W12       29.83S
$$




USA.gov is the U.S. government's official web portal to all federal, state and local government web resources and services.